Regional Weather Roundup
Issued by NWS

Home | Current Version | Previous Version | Graphics & Text | Print | Product List | Glossary Off
Versions: 1 2 3 4 5 6 7 8 9 10 11 12 13 14 15 16 17 18 19 20 21 22 23 24 25 26 27 28 29 30 31 32 33 34 35 36 37 38 39 40 41 42 43 44 45 46 47 48 49 50

000
ASUS43 KDMX 191101
RWRIA

WEATHER ROUNDUP FOR IOWA
NATIONAL WEATHER SERVICE DES MOINES IA
600 AM CDT THU OCT 19 2017

NOTE: "FAIR" INDICATES FEW OR NO CLOUDS BELOW 12,000 FEET WITH NO
SIGNIFICANT WEATHER AND/OR OBSTRUCTIONS TO VISIBILITY.

* - THESE STATIONS ARE NOT NWS STATIONS...THUS NOT UNDER NWS
QUALITY CONTROL.  THEY ALSO DO NOT REPORT WEATHER SUCH
AS PRECIPITATION OR FOG.

IAZ001>003-012>014-020>022-031>034-043>046-191200-
   NORTHWEST IOWA

CITY           SKY/WX    TMP DP  RH WIND       PRES   REMARKS
CARROLL *      CLOUDY    48  48 100 CALM      30.08S
CHEROKEE *     CLOUDY    35  35 100 CALM      30.07F
DENISON *      CLOUDY    41  37  87 E3        30.09S
LE MARS *      CLOUDY    36  36 100 CALM      30.06S
ORANGE CITY *  CLOUDY    48  36  61 SE3       30.06R
SHELDON *      CLOUDY    37  34  87 SE5       30.04S WCI  34
SIOUX CITY     CLOUDY    39  37  92 E3        30.07R
SPENCER        CLOUDY    36  32  85 CALM      30.07S
STORM LAKE *   CLOUDY    43  32  65 SE9       30.07F
$$

IAZ055>058-069>071-079>083-090>094-191200-
   SOUTHWEST IOWA

CITY           SKY/WX    TMP DP  RH WIND       PRES   REMARKS
ATLANTIC *     CLEAR     39  39 100 N3        30.08R
AUDUBON *      CLOUDY    37  36  93 CALM      30.10R
CLARINDA *       N/A     43  43 100 CALM      30.09S FOG
COUNCIL BLFS * CLEAR     50  50 100 E8        30.06R
CRESTON *      CLEAR     50  46  87 NE8       30.09R
HARLAN  *      CLOUDY    39  39 100 CALM      30.11R
LAMONI         CLEAR     51  48  89 E5        30.08R
RED OAK *      CLEAR     45  43  93 N6        30.07S
SHENANDOAH *   CLEAR     45  45 100 NE6       30.07R
$$

IAZ047>049-059>061-072>074-084-191200-
   CENTRAL IOWA

CITY           SKY/WX    TMP DP  RH WIND       PRES   REMARKS
AMES           CLEAR     40  40 100 CALM      30.10R
ANKENY *       CLEAR     43  39  87 CALM      30.11R
BOONE *        CLOUDY    45  37  76 E8        30.09R
CHARITON *     CLEAR     46  45  93 E3        30.09R FOG
DES MOINES     CLEAR     53  40  61 E6        30.09R
KNOXVILLE *    CLEAR     50  46  87 E5        30.09R
MARSHALLTOWN   CLOUDY    41  38  89 SE3       30.10R
NEWTON *       CLEAR     50  39  66 NE8       30.10R
PELLA *        CLEAR     51  41  68 CALM      30.11R
PERRY *          N/A     38  38  99 CALM      30.09S
$$

IAZ004>006-015-016-023>025-035-036-191200-
   NORTH CENTRAL IOWA

CITY           SKY/WX    TMP DP  RH WIND       PRES   REMARKS
ALGONA *       CLOUDY    39  36  87 SE3       30.08R
CLARION *      CLOUDY    41  36  81 S6        30.09R
ESTHERVILLE    CLOUDY    36  35  96 S8        30.06S WCI  30
FORT DODGE *   CLOUDY    39  35  86 CALM      30.09S
MASON CITY     CLOUDY    36  32  85 CALM      30.11R
FOREST CITY *    N/A     37  36  93 CALM      30.09R
WEBSTER CITY * CLOUDY    41  36  81 SE6       30.08R
IOWA FALLS *     N/A     44  34  69 SE3       30.10S
$$

IAZ007>011-017>019-026>030-037>042-050>054-066-191200-
   NORTHEAST IOWA

CITY           SKY/WX    TMP DP  RH WIND       PRES   REMARKS
CEDAR RAPIDS   CLOUDY    49  38  65 NE8       30.10R
CHARLES CITY * CLOUDY    39  36  87 CALM      30.10R
CLINTON *      CLOUDY    45  43  93 CALM      30.11R
DECORAH *      CLOUDY    45  28  53 CALM      30.09R
DUBUQUE        CLOUDY    46  35  65 N6        30.10R
MONTICELLO *   PTCLDY    39  39 100 CALM      30.11R
OELWEIN *      CLOUDY    46  30  53 E5        30.10R
WATERLOO       CLOUDY    39  37  92 CALM      30.09R
$$

IAZ064-065-067-068-078-191200-
   EAST CENTRAL IOWA

CITY           SKY/WX    TMP DP  RH WIND       PRES   REMARKS
DAVENPORT      PTCLDY    45  43  93 NW5       30.12R
IOWA CITY      CLOUDY    46  44  93 CALM      30.12R
MUSCATINE *    CLEAR     46  45  93 CALM      30.11R
QUAD CITIES    CLEAR     46  44  93 CALM      30.10R
$$

IAZ062-063-075>077-085>089-095>099-191200-
   SOUTHEAST IOWA

CITY           SKY/WX    TMP DP  RH WIND       PRES   REMARKS
BURLINGTON     CLEAR     47  45  93 CALM      30.10R
FAIRFIELD *    CLEAR     46  45  93 NW5       30.09R
FORT MADISON * CLEAR     52  48  87 CALM      30.10R
KEOKUK *       CLEAR     52  46  82 CALM      30.09R
OSKALOOSA *      N/A     47  46  97 NE5       30.10R
OTTUMWA        CLEAR     50  46  86 N6        30.09R
WASHINGTON *   CLEAR     46  46 100 N5        30.11R
$$

ABBREVIATIONS USED IN REMARKS
   TC - TEMPERATURES IN CELSIUS
  WCI - WIND CHILL INDEX
   HX - HEAT INDEX
  VSB - VISIBILITY
$$





USA.gov is the U.S. government's official web portal to all federal, state and local government web resources and services.